EW6230 Weather Reports


time (UTC)temp
F
wind
direction
speed
knots
gust
knots
rain 1hr
in
rain 24hr
in
rain mn
in
humidity
%
barometer
mb
20260510224526 65 314 0.0 1.7 0.00 0.00 0.00 61 1016.2
20260510223021 66 130 0.0 3.5 0.00 0.00 0.00 62 1016.2
20260510221517 64 6 0.0 4.3 0.00 0.00 0.00 61 1016.2
20260510220015 66 114 0.0 2.6 0.00 0.00 0.00 61 1016.0
20260510214508 65 338 0.0 2.6 0.00 0.00 0.00 61 1015.8
20260510213003 65 352 0.0 1.7 0.00 0.00 0.00 61 1015.7
20260510211558 65 230 0.0 2.6 0.00 0.00 0.00 61 1015.7
20260510210054 64 142 0.0 4.3 0.00 0.00 0.00 61 1015.6
20260510204557 65 36 0.0 2.6 0.00 0.00 0.00 61 1015.5
20260510203045 64 327 0.0 0.9 0.00 0.00 0.00 62 1015.4
20260510201544 65 323 0.0 0.9 0.00 0.00 0.00 62 1015.3
20260510200037 65 30 0.0 0.9 0.00 0.00 0.00 61 1015.4
20260510194534 65 333 0.0 0.9 0.00 0.00 0.00 61 1015.3
20260510193027 65 326 0.0 1.7 0.00 0.00 0.00 61 1015.3
20260510191523 64 354 0.0 2.6 0.00 0.00 0.00 61 1015.1
20260510190026 63 359 0.0 0.9 0.00 0.00 0.00 60 1015.1
20260510184515 62 352 0.0 0.9 0.00 0.00 0.00 59 1015.2
20260510183009 61 296 0.0 0.9 0.00 0.00 0.00 54 1015.2
20260510181505 61 345 0.0 0.9 0.00 0.00 0.00 59 1015.1
20260510180110 61 338 0.0 0.9 0.00 0.00 0.00 57 1014.9
20260510174556 60 260 0.0 0.9 0.00 0.00 0.00 56 1014.8
20260510173053 60 345 0.0 0.9 0.00 0.00 0.00 57 1014.6
20260510171550 60 210 0.0 0.9 0.00 0.00 0.00 55 1014.5
20260510170043 61 244 0.0 1.7 0.00 0.00 0.00 62 1014.7
20260510164542 62 212 0.0 0.0 0.00 0.00 0.00 59 1014.4
20260510163034 59 210 0.0 0.9 0.00 0.00 0.00 60 1014.2
20260510161529 56 283 0.0 0.0 0.00 0.00 0.00 44 1014.4
20260510160034 55 129 0.0 0.9 0.00 0.00 0.00 41 1014.5
20260510154527 54 144 0.0 0.9 0.00 0.00 0.00 21 1014.3
20260510153016 53 144 0.0 0.9 0.00 0.00 0.00 1 1014.1
20260510151511 52 89 0.0 0.0 0.00 0.00 0.00 1 1014.1
20260510150008 51 294 0.0 0.0 0.00 0.00 0.00 1 1014.2
20260510144503 50 294 0.0 0.0 0.00 0.00 0.00 1 1014.0
20260510143101 49 294 0.0 0.9 0.00 0.00 0.00 1 1014.2
20260510141555 49 175 0.0 0.0 0.00 0.00 0.00 1 1013.8
20260510140050 48 175 0.0 0.0 0.00 0.00 0.00 1 1014.0
20260510134546 48 176 0.0 0.0 0.00 0.00 0.00 1 1013.9
20260510133042 47 176 0.0 0.0 0.00 0.00 0.00 1 1013.9
20260510131536 47 175 0.0 0.0 0.00 0.00 0.00 1 1013.7
20260510130032 47 175 0.0 0.0 0.00 0.00 0.00 1 1013.6
20260510124529 47 175 0.0 0.0 0.00 0.00 0.00 1 1013.7
20260510123025 47 175 0.0 0.0 0.00 0.00 0.00 1 1013.5
20260510121519 47 175 0.0 0.0 0.00 0.00 0.00 1 1013.5
20260510120021 47 175 0.0 0.0 0.00 0.00 0.00 1 1013.3
20260510114516 47 175 0.0 0.0 0.00 0.00 0.00 1 1013.4
20260510113005 47 175 0.0 0.0 0.00 0.00 0.00 1 1013.6
20260510111606 47 175 0.0 0.0 0.00 0.00 0.00 1 1013.6
20260510110101 47 175 0.0 0.0 0.00 0.00 0.00 1 1013.3
20260510104551 47 175 0.0 0.0 0.00 0.00 0.00 1 1013.3
20260510103047 47 175 0.0 0.0 0.00 0.00 0.00 1 1013.3
20260510101544 47 175 0.0 0.0 0.00 0.00 0.00 1 1013.3
20260510100044 47 175 0.0 0.0 0.00 0.00 0.00 1 1013.2
20260510094544 48 175 0.0 0.0 0.00 0.00 0.00 1 1013.4
20260510093033 48 175 0.0 0.0 0.00 0.00 0.00 1 1013.3
20260510091532 48 175 0.0 0.0 0.00 0.00 0.00 1 1013.4
20260510090021 48 175 0.0 0.0 0.00 0.00 0.00 1 1013.4
20260510084519 48 175 0.0 0.0 0.00 0.00 0.00 1 1013.3
20260510083012 48 175 0.0 0.0 0.00 0.00 0.00 1 1013.2
20260510081507 49 175 0.0 0.0 0.00 0.00 0.00 1 1013.1
20260510080007 49 176 0.0 0.0 0.00 0.00 0.00 1 1013.1
20260510074559 49 176 0.0 0.0 0.00 0.00 0.00 1 1013.1
20260510073057 49 175 0.0 0.0 0.00 0.00 0.00 1 1013.1
20260510071550 49 175 0.0 0.0 0.00 0.00 0.00 1 1013.0
20260510070045 49 176 0.0 0.0 0.00 0.00 0.00 1 1012.9
20260510064541 49 176 0.0 0.0 0.00 0.00 0.00 1 1013.1
20260510063031 49 175 0.0 0.0 0.00 0.00 0.00 1 1013.1
20260510061527 49 176 0.0 0.0 0.00 0.00 0.00 1 1013.1
20260510060035 50 176 0.0 0.0 0.00 0.00 0.00 1 1012.9
20260510054525 50 175 0.0 0.0 0.00 0.00 0.00 1 1013.1
20260510053012 51 176 0.0 0.0 0.00 0.00 0.00 1 1013.1
20260510051512 51 175 0.0 0.0 0.00 0.00 0.00 6 1013.2
20260510050004 52 175 0.0 0.0 0.00 0.00 0.00 12 1013.4
20260510044618 52 175 0.0 0.0 0.00 0.00 0.00 16 1013.4
20260510043055 53 175 0.0 0.0 0.00 0.00 0.00 20 1013.4
20260510041550 53 175 0.0 0.0 0.00 0.00 0.00 28 1013.5
20260510040050 54 175 0.0 0.0 0.00 0.00 0.00 43 1013.4
20260510034542 56 175 0.0 0.0 0.00 0.00 0.00 52 1013.3
20260510033037 58 175 0.0 0.0 0.00 0.00 0.00 61 1013.1
20260510031533 59 175 0.0 0.0 0.00 0.00 0.00 62 1013.0
20260510030028 60 175 0.0 0.0 0.00 0.00 0.00 62 1013.0
20260510024523 60 175 0.0 0.0 0.00 0.00 0.00 61 1013.1
20260510023019 61 175 0.0 0.0 0.00 0.00 0.00 61 1013.2
20260510021514 61 175 0.0 0.0 0.00 0.00 0.00 61 1013.2
20260510020010 62 175 0.0 0.0 0.00 0.00 0.00 59 1013.4
20260510014509 63 175 0.0 0.0 0.00 0.00 0.00 60 1013.5
20260510013001 63 86 0.0 0.9 0.00 0.00 0.00 60 1013.6
20260510011557 63 86 0.0 0.9 0.00 0.00 0.00 59 1013.6
20260510010052 62 86 0.0 0.9 0.00 0.00 0.00 59 1013.8
20260510004550 62 89 0.0 0.0 0.00 0.00 0.00 59 1014.2
20260510003043 63 105 0.0 0.0 0.00 0.00 0.00 58 1014.4
20260510001538 63 105 0.0 0.0 0.00 0.00 0.00 59 1014.6
20260510000034 63 74 0.0 0.9 0.00 0.00 0.00 58 1014.8
20260509234538 63 74 0.0 0.9 0.00 0.00 0.00 59 1015.1
20260509233025 64 60 0.0 0.9 0.00 0.00 0.00 58 1015.2
20260509231520 65 60 0.0 0.9 0.00 0.00 0.00 59 1015.3
20260509230017 64 55 0.0 0.9 0.00 0.00 0.00 60 1015.6